SB KEPS @ AMSAT $ORB24313.1
2Line Orbital Elements 24313.AMSAT
QST de W1STR
AMSAT Orbital Elements for Amateur Satellites in TLE Format
From Orbital Analysis Office
New England Sci-Tech STEM Education Center
Natick, MA November 08, 2024
To all radio amateurs
These element sets describe the orbits of various satellites
in use by the amateur radio community. For details see:
www.amsat.org/keplerian-elements-formats/
A daily update of element sets is available at:
www.amsat.org/tle/daily-bulletin.txt
or without bulletin text:
www.amsat.org/tle/dailytle.txt
AO-07
1 07530U 74089B 24312.48682844 -.00000021 00000-0 15746-3 0 9999
2 07530 101.9889 308.5302 0012165 169.7553 342.7872 12.53682139286992
UO-11
1 14781U 84021B 24312.86733134 .00006672 00000-0 73291-3 0 9999
2 14781 97.7256 278.0754 0007095 335.8826 24.2058 14.87958151190840
AO-27
1 22825U 93061C 24312.63934409 .00000679 00000-0 27699-3 0 9996
2 22825 98.7702 6.7896 0008792 26.4143 333.7486 14.30647462623390
FO-29
1 24278U 96046B 24312.78103285 .00000044 00000-0 79765-4 0 9990
2 24278 98.5844 228.6258 0350075 176.1723 184.2225 13.53220530394108
NOAA-15
1 25338U 98030A 24312.86798636 .00000779 00000-0 33910-3 0 9998
2 25338 98.5573 336.9369 0009163 264.1413 95.8723 14.26786624377927
GO-32
1 25397U 98043D 24312.84643297 .00000622 00000-0 29004-3 0 9993
2 25397 98.9431 281.8608 0002329 96.3358 263.8085 14.24182702368083
ISS
1 25544U 98067A 24312.86080764 .00023141 00000-0 39282-3 0 9999
2 25544 51.6388 323.6416 0008882 147.1398 213.0145 15.51332869480839
NO-44
1 26931U 01043C 24312.73000788 .00001093 00000-0 44207-3 0 9997
2 26931 67.0509 320.6565 0007412 262.9033 97.1226 14.31483861206651
SO-50
1 27607U 02058C 24312.49752122 .00005246 00000-0 70027-3 0 9997
2 27607 64.5537 140.6887 0030601 37.6024 322.7212 14.80226635177528
CO-55
1 27844U 03031E 24312.27748844 .00001690 00000-0 76030-3 0 9993
2 27844 98.6791 317.3608 0010865 89.6368 270.6056 14.23619174108143
CO-57
1 27848U 03031J 24312.48097062 .00001473 00000-0 67282-3 0 9997
2 27848 98.6821 317.7203 0010701 103.9004 256.3365 14.23010393107918
RS-22
1 27939U 03042A 24312.80020361 .00005428 00000-0 88962-3 0 9996
2 27939 98.3071 111.5383 0011188 331.4892 135.3416 14.71115155129388
NOAA-18
1 28654U 05018A 24312.78124793 .00000821 00000-0 45982-3 0 9994
2 28654 98.8638 28.4894 0014360 20.3253 339.8488 14.13410867 3543
CO-58
1 28895U 05043F 24312.81944391 .00007543 00000-0 12850-2 0 9992
2 28895 98.2218 89.1624 0014247 263.3557 96.6027 14.69256583 15761
CO-65
1 32785U 08021C 24312.48370607 .00015076 00000-0 12108-2 0 9996
2 32785 97.7740 277.0515 0009665 206.5667 153.5062 15.00107294896932
AAUSAT2
1 32788U 08021F 24312.40174797 .00080238 00000-0 25943-2 0 9996
2 32788 97.6053 294.3520 0007420 63.2087 296.9912 15.31737702900221
CO-66
1 32791U 08021J 24312.82498991 .00028936 00000-0 17924-2 0 9998
2 32791 97.7071 283.8325 0005381 149.7140 210.4400 15.09716501898224
RS-30
1 32953U 08025A 24312.80950751 .00000034 00000-0 17320-3 0 9997
2 32953 82.5062 0.1559 0020320 149.4651 210.7616 12.43152559746977
PRISM
1 33493U 09002B 24312.59727469 .00096924 00000-0 28516-2 0 9998
2 33493 98.1827 13.7854 0008669 111.3923 248.8243 15.34660413860914
NOAA-19
1 33591U 09005A 24312.82429561 .00000724 00000-0 41119-3 0 9996
2 33591 99.0295 10.0291 0012961 245.3830 114.5992 14.13190723811916
SRMSAT
1 37841U 11058D 24312.50942903 .00001092 00000-0 45135-3 0 9995
2 37841 19.9734 9.8310 0011562 230.0098 158.2679 14.11275257674837
RS-40
1 38735U 12041C 24312.81592454 .00000075 00000-0 46954-3 0 9997
2 38735 82.4745 80.3229 0016659 264.8603 95.0575 12.42620035557102
ZACUBE-1
1 39417U 13066B 24312.84254794 .00017376 00000-0 16568-2 0 9997
2 39417 97.7533 265.9917 0049685 46.3768 314.1556 14.92461872592987
Delfi-N3xt
1 39428U 13066N 24312.53488065 .00026951 00000-0 30968-2 0 9994
2 39428 97.8336 227.4100 0093678 344.3057 15.5257 14.82606894587293
GOMX-1
1 39430U 13066Q 24312.69966064 .00007412 00000-0 11891-2 0 9999
2 39430 97.7072 178.3619 0136823 155.3486 205.4342 14.65816343584056
LO-74
1 39440U 13066AA 24312.87619026 .00012387 00000-0 13566-2 0 9991
2 39440 97.8268 253.7733 0066848 161.8178 198.5450 14.86268450590859
AO-73
1 39444U 13066AE 24312.35312095 .00022047 00000-0 19080-2 0 9995
2 39444 97.7376 269.0872 0045625 26.9045 333.4528 14.96350684591488
DTUSAT-2
1 40030U 14033W 24312.62751356 .00021966 00000-0 16494-2 0 9995
2 40030 98.0305 269.3759 0012347 65.9247 294.3268 15.02567200564204
EO-80
1 40032U 14033Y 24312.85854010 .00021607 00000-0 16208-2 0 9998
2 40032 98.0173 269.5577 0010209 16.6073 343.5483 15.02628827564731
XW-2C
1 40906U 15049H 24312.83851484 .00132938 00000-0 15173-2 0 9996
2 40906 97.4630 334.9018 0007458 125.5726 234.6228 15.61738468506726
XW-2D
1 40907U 15049J 24312.74210277 .00972389 47280-3 18139-2 0 9997
2 40907 97.4418 340.3976 0003675 142.6273 217.5262 16.01107473507145
LILACSAT-2
1 40908U 15049K 24312.82756141 .00025042 00000-0 82671-3 0 9996
2 40908 97.5220 323.0198 0010396 192.8743 167.2234 15.31345032505436
XW-2B
1 40911U 15049N 24312.80526195 .00641590 17017-3 18207-2 0 9996
2 40911 97.4423 340.1123 0004405 133.6519 226.5121 15.93357365506996
IO-86
1 40931U 15052B 24312.73766588 .00002834 00000-0 29270-3 0 9992
2 40931 5.9997 46.6329 0013301 317.1941 42.7152 14.78321910492846
ChubuSat-2
1 41338U 16012B 24312.03168369 .00016646 00000-0 95151-3 0 9994
2 41338 30.9983 189.5412 0010452 236.6289 123.3349 15.11476056479204
ChubuSat-3
1 41339U 16012C 24312.83651481 .00013811 00000-0 80912-3 0 9995
2 41339 31.0054 183.9190 0010634 246.9538 112.9979 15.10563567479295
Horyu-4
1 41340U 16012D 24312.61214718 .00037251 00000-0 14986-2 0 9992
2 41340 30.9985 116.5611 0009537 2.8465 357.2230 15.23673296479981
Lapan A3
1 41603U 16040E 24312.83690084 .00009349 00000-0 35244-3 0 9991
2 41603 97.1410 320.2129 0010204 319.2391 40.8085 15.27223916465134
Pratham
1 41783U 16059A 24312.74739114 .00003529 00000-0 65361-3 0 9995
2 41783 97.8315 325.3713 0030685 285.8567 73.9256 14.65610135433560
CAS-2T
1 41847U 16066G 24312.20815474 .00005138 00000-0 74164-3 0 9998
2 41847 98.4462 22.4309 0351314 106.2943 257.7185 14.42337714420109
CAS-4B
1 42759U 17034B 24312.85044434 .00056074 00000-0 14501-2 0 9991
2 42759 43.0129 129.6318 0014820 250.1942 109.7316 15.38184583409440
CAS-4A
1 42761U 17034D 24312.83745866 .00058385 00000-0 14981-2 0 9998
2 42761 43.0162 127.9150 0015390 258.3849 101.5280 15.38400004409454
D-SAT
1 42794U 17036AF 24312.39671667 .00022369 00000-0 14106-2 0 9996
2 42794 97.4941 289.4046 0104156 22.5735 338.0024 15.04654769402223
TechnoSat
1 42829U 17042E 24312.43889371 .00011271 00000-0 93617-3 0 9995
2 42829 97.3889 125.7369 0010421 318.2524 41.7904 14.98862437398611
AO-91
1 43017U 17073E 24312.38059032 .00021131 00000-0 11890-2 0 9994
2 43017 97.5486 183.0360 0196429 172.8106 187.6010 14.98283419377068
S-Net D
1 43186U 18014G 24312.25002570 .00015291 00000-0 10039-2 0 9992
2 43186 97.5754 211.7133 0007827 232.8398 127.2116 15.07705320370031
S-Net B
1 43187U 18014H 24312.45225781 .00015313 00000-0 10053-2 0 9997
2 43187 97.5763 211.8723 0008705 226.7538 133.2964 15.07700223370060
S-Net A
1 43188U 18014J 24312.45010827 .00015198 00000-0 99747-3 0 9990
2 43188 97.5769 211.9953 0008548 227.7636 132.2867 15.07715070370065
S-Net C
1 43189U 18014K 24312.45426797 .00015228 00000-0 99940-3 0 9997
2 43189 97.5785 211.9759 0010434 220.3052 139.7403 15.07700430368616
Ten-Koh
1 43677U 18084G 24312.39193467 .00010369 00000-0 87927-3 0 9997
2 43677 98.0793 110.4858 0011925 260.6158 99.3715 14.98098294328144
PO-101
1 43678U 18084H 24312.89538889 .00005310 00000-0 47188-3 0 9999
2 43678 98.0874 115.3672 0007605 278.8307 81.2052 14.96551876328401
QO-100
1 43700U 18090A 24312.50580251 .00000157 00000-0 00000-0 0 9993
2 43700 0.0088 265.2401 0001493 353.6949 356.1616 1.00272043 21794
MinXSS-2
1 43758U 18099A 24312.61177257 .00032158 00000-0 16964-2 0 9999
2 43758 97.5348 13.1742 0014585 180.2684 179.8543 15.15392697324458
AO-95
1 43770U 18099N 24312.85347953 .00025628 00000-0 15525-2 0 9997
2 43770 97.5259 7.8900 0011556 228.2615 131.7627 15.10511160324218
RANGE-B
1 43772U 18099Q 24312.64392193 .00040690 00000-0 20270-2 0 9991
2 43772 97.5059 11.8946 0005157 126.1317 234.0394 15.17434028324412
RANGE-A
1 43773U 18099R 24312.18489827 .00013600 00000-0 95213-3 0 9993
2 43773 97.4820 0.9246 0011689 199.5476 160.5304 15.05309028323924
MOVE-II
1 43780U 18099Y 24312.44818776 .00073032 00000-0 25743-2 0 9994
2 43780 97.5006 15.0491 0004757 188.9865 171.1290 15.28982657324709
SNUSat 2
1 43782U 18099AA 24312.11206119 .00021719 00000-0 13753-2 0 9995
2 43782 97.4933 5.4846 0013660 169.1570 190.9956 15.08905547324094
SnugLite
1 43784U 18099AC 24312.39528908 .00022100 00000-0 13329-2 0 9994
2 43784 97.4755 5.0621 0004316 160.8730 199.2663 15.10750627324221
ITASat 1
1 43786U 18099AE 24312.59451042 .00017799 00000-0 11570-2 0 9996
2 43786 97.4905 5.9822 0015141 219.2545 140.7586 15.07966428324154
EAGLET 1
1 43790U 18099AJ 24312.41586305 .00013197 00000-0 91723-3 0 9990
2 43790 97.5106 6.2458 0012476 195.2819 164.8032 15.05581801323807
ESEO
1 43792U 18099AL 24312.13756891 .00006768 00000-0 53376-3 0 9998
2 43792 97.4900 1.7896 0008004 155.8261 204.3340 15.01031217323631
CSIM
1 43793U 18099AM 24312.14975148 .00079137 00000-0 28424-2 0 9993
2 43793 97.5141 16.5662 0009618 170.8757 189.2659 15.28305737324505
JO-97
1 43803U 18099AX 24312.60652964 .00027143 00000-0 15453-2 0 9992
2 43803 97.5006 8.4008 0009163 162.0146 198.1411 15.12764695324332
Suomi 100
1 43804U 18099AY 24312.61959262 .00024520 00000-0 14474-2 0 9993
2 43804 97.5077 8.1313 0014655 164.3842 195.7843 15.11426573324305
ISAT
1 43879U 18111D 24312.29533001 .00037062 00000-0 18384-2 0 9992
2 43879 97.6046 217.7933 0009337 217.1411 142.9177 15.17581523319042
UWE-4
1 43880U 18111E 24312.73287443 .00033169 00000-0 17307-2 0 9997
2 43880 97.5980 217.8281 0012447 229.7382 130.2762 15.15797608319129
